Location: Castillon
(43.0896°N, 0.2156°E)
Time: 04:16:04
(UTC+00:00)

Cosmos 1980 Rocket - Pass Details

Date: 18 October 2021
Orbit: 828 x 851 km, 71.0° (Epoch: 07 December)

Event Time Altitude Azimuth Distance (km) Brightness Sun altitude
Exits shadow 03:41:00 49° 354° (N) 1,084 2.7 -28.9°
Maximum altitude 03:42:32 74° 64° (ENE) 886 2.3 -28.7°
Drops below altitude 10° 03:48:12 10° 150° (SSE) 2,467 4.8 -27.7°
Sets 03:50:39 0° 152° (SSE) 3,396 5.5 -27.2°
